Location: Unspecified
(47.4992°N, 121.7766°W)
Time: 18:34:33
(UTC-07:00)

CZ-3 Stage 3 - Visible Passes

Search period start: 29 March 2023 00:00
Search period end: 08 April 2023 00:00
Orbit: 433 x 34725 km, 31.1° (Epoch: 29 March)

Date Brightness Start Highest point End Pass type
(mag) Time Alt. Az. Time Alt. Az. Time Alt. Az.
30 Mar 8.4 05:20:44 10° SW 05:29:52 10° SSW 05:41:12 10° SSW visible
31 Mar 8.4 01:39:04 17° SSE 01:39:04 17° SSE 02:21:40 10° SSE visible
31 Mar 4.8 21:26:27 10° SSW 21:29:44 17° SSE 21:29:56 17° SSE visible
03 Apr 8.5 01:26:56 15° SSE 01:26:56 15° SSE 01:56:44 10° SSE visible
03 Apr 4.8 21:11:43 10° SSW 21:14:47 16° SSE 21:16:23 15° SSE visible
06 Apr 6.3 01:14:53 13° SSE 01:14:53 13° SSE 01:33:18 10° SSE visible
06 Apr 4.8 20:56:54 10° SSW 20:59:43 15° SSE 21:02:48 13° SE visible
